voRXj8x.gif (770×66)

1 WEEK
50 EUR
7/8 Provided Games
High Winning Possibility
1 VIP TICKET per WEEK
Personal Assistance
Odds 2.00 – 30.00
 
1 MONTH
150 EUR
32/34 Provided Games
High Winning Possibility
ALL VIP TICKETS
ALL HT/FT
Personal Assistance
Odds 2.00 – 30.00
2 WEEKS
90 EUR
14/16 Provided Games
High Winning Possibility
2 VIP TICKETS
1 HT/FT
Personal Assistance
Odds 2.00 – 30.00

   Contact : GEMBET@NET.HR

Whatsapp: +389 78 670 897


CURRENT MONTH OCTOBER

DATE MATCH – HOME / AWAY TIP ODD HT/FT
01.10.2018 Tromsø – Brann 1 2.90 2:1
02.10.2018 Ipswich – Middlesbrough 2 2.05 0:2
03.10.2018 Rotherham – Bristol City X 3.60 0:0
04.10.2018 Bordeaux – FC Kopenhagen 2 4.60 1:2
05.10.2018 Pandurii – UTA Arad 2 2.90 1:2
06.10.2018 Barrow – Sutton 1 3.10 2:1
07.10.2018 Meppen – 1860 München 1 2.90 1:0
08.10.2018 Flandria – San Miguel 2 3.40 0:1
09.10.2018 Bel Abbes – Mo Bejaia X 3.20 2:2
10.10.2018 Botafogo RJ – Vasco X 3.25 1:1
11.10.2018 Poland – Portugal 2 2.62  2:3
12.10.2018 Extremadura UD – Cadiz CF 1 2.50 2:1
13.10.2018 DR Kongo – Zimbabve 2 9.50 1:2
14.10.2018 DEP Cuenca – Tecnico U. 2 4.33 1:3
15.10.2018 Spain – England 2 6.00 2:3
16.10.2018 Hallescher – H. Rostock 2 3.80 0:1
17.10.2018 Novara – Pro Patria 2 6.50 0:1
18.10.2018 BUY NOW ! ? ??? ?:?

CURRENT MONTH SEPTEMBER

DATE MATCH – HOME / AWAY TIP ODD HT/FT
01.09.2018 Grimsby Town – Yeovil 2 3.00 0:3
02.09.2018 Odense – Nordsjaelland X 3.80 0:0
03.09.2018 Sonnenhof Grossaspach – Aalen X 3.30 1:1
04.09.2018 Northampton – Wycombe 2 2.75 0:1
05.09.2018 Mensajero – Compostela 2 3.20 0:3
06.09.2018 Czech Republic – Ukraine 2 3.00 1:2
07.09.2018 Jong Utrecht – Jong PSV 1 3.80 3:2
08.09.2018 Doncaster – Luton 1 2.70 2:1
09.09.2018 Oxford Utd – Coventry 2 3.25 1:2
10.09.2018 Portugal – Italy 1 2.30 1:0
11.09.2018  Mallorca – R. Oviedo 1 2.40 1:0
12.09.2018 El Entag El Harby – Petrojet 1 3.00 2:1
13.09.2018 SJK – TPS Turku 1 2.05 1:0
14.09.2018 Horn – A. Klagenfurt 2 3.00 0:1
15.09.2018 Dover – Solihull 2 2.80 0:2
16.09.2018 Leganes – Villarreal 2 2.54 0:1
17.09.2018 Estoril – Feirense 2 3.20 1:2
18.09.2018 Leeds – Preston 1 2.10 3:0
19.09.2018 Armavir – F . Voronezh 1 3.00 4:1
20.09.2018 Ludogorets – B. Leverkusen 2 2.55 2:3
21.09.2018 Kapfenberg – BW Linz 2 2.10 0:2
23.09.2018 PSV – Ajax 1 2.70 3:0
24.09.2018 Niort – Lens 2 2.50 1:2
25.09.2018 Blackpool – QPR 1 2.60 2:0
26.09.2018 Amiens – Rennes 1 3.50 2:1
27.09.2018 Groningen – Twente 2 3.30 0:2
28.09.2018 Crotone – Brescia X 3.30 2:2
29.09.2018 Mouscron – Waasland-Beveren 2 3.40 0:3
30.09.2018 Molde – Rosenborg 1 2.20 1:0

CURRENT MONTH AUGUST

DATE MATCH – HOME / AWAY TIP ODD HT/FT
01.08.2018 TSV Havelse – Egestorf-Langreder 1 2.75 3:2
02.08.2018 Din. Minsk –  Dun. Streda 1 2.40 4:1
03.08.2018 Wil – Servette 1 3.30 2:1
04.08.2018 Port Vale – Cambridge Utd 1 2.50 3:0
05.08.2018 Lyngby – Silkeborg 1 2.90 1:0
06.08.2018 Elfsborg – Östersunds 2 2.55 0:2
07.08.2018 Eastbourne – Welling 1 3.00 1:0
08.08.2018 Cuneo – Albissola 2 3.00 2:3
09.08.2018 O. Ljubljana – HJK 1 2.40 3:0
10.08.2018 Ural – Din. Moscow X 3.00 1:1
11.08.2018 Newport – Crewe 1 2.50 1:0
12.08.2018 Entella – Salernitana 1 2.90 2:0
13.08.2018 Fram – Stabaek 2 2 2.50 1:3
14.08.2018 Barrow – Chesterfield 1 3.00 3:2
15.08.2018 Hougang – Balestier Khalsa 2 2.75 1:2
16.08.2018 Valur – S. Tiraspol 1 4.00 2:1
17.08.2018 Sochaux – Brest 1 2.50 2:0
18.08.2018 Gornik Z. – Lechia 2 3.10 0:2
19.08.2018 Nest-Sotra – Ham-Kam 1 2.45 1:0
20.08.2018 Breidablik – Valur 2 2.45 1:3
21.08.2018 Bradford City – Burton 1 2.50 1:0
22.08.2018 Suwalki – Termalica B-B. 1 3.60 3:2
23.08.2018 Njardvik – IR Reykjavik X 3.25 1:1
24.08.2018 Horn – Vorwarts Steyr 2 3.50 1:2
25.08.2018 QPR – Wigan 1 3.00 1:0
26.08.2018 Vejle – Odense 2 2.50 0:2
27.08.2018 Oxford City – Wealdstone 1 3.30 3:0
28.08.2018 Al-Shoalah – Al-Nahda 2 3.00 0:1
29.08.2018 Kiel II – Luneburger Hansa 1 2.20 2:1
30.08.2018 Ufa – Rangers  X 3.00 1:1
29.08.2018 1860 München – E. Cottbus 1/1 3.00 2:0

CURRENT MONTH JULY

DATE MATCH – HOME / AWAY TIP ODD HT/FT
01.07.2018 Stabaek – Haugesund 1 2.50 2:1
02.07.2018 Odds 2 – Elverum 1 2.60 3:1
03.07.2018 Celtic – Sparta Prag 1 2.70 1:0
04.07.2018 SJK – Lahti 1 3.20 1:0
05.07.2018 Njardvik – Olafsvik X 3.60 1:1
06.07.2018 AC Wolfsberger – Vitesse  1 3.25 2:1
07.07.2018 Lahti – Inter Turku 2 4.20 1:2
08.07.2018 Alta – Fredrikstad 2 2.50 1:3
09.07.2018 SJK – Rovaniemi 1 2.30 2:1
10.07.2018 Nijmegen – Al-Gharafa X 3.50 0:0
11.07.2018 Trnava – Zrinjsk 1 2.20 1:0
12.07.2018 Grindavik – Akureyri 2 2.70 1:2
14.07.2018 Finn Harps – Longford 1 3.40 3:0
15.07.2018 Tochigi – Yamagata 1 3.00 1:0
16.07.2018 Brest – Soligorsk 2 3.60 1:3
17.07.2018 Valletta – Kukesi X 2.80 1:1
18.07.2018 Mitra Kukar – Sriwijaya 1/1 2.50 3:0
19.07.2018 Laci – Anorthosis 1 3.25 1:0
20.07.2018 Aluminij – Celje 1 3.50 2:1
21.07.2018 Esbjerg – Vendsyssel FF 2 3.70 2:3
22.07.2018 Club Brugge – St. Liege 1 2.10 2:1
23.07.2018 Gaz Metan – Concordia 1 2.15 2:1
24.07.2018 Stranraer – Clyde 2 3.00 1:3
25.07.2018 OFI Crete – AEL Larissa 1 2.75 1:0
26.07.2018 Persebaya – Persib 2 2.60 3:4
27.07.2018 A. Klagenfurt – A. Lustenau X 3.60 1:1
28.07.2018 KPV – Oulu 2 3.20 1:2
29.07.2018 St. Polten – AC Wolfsberger  1 2.60 4:3
30.07.2018 Brest – Metz 2 3.75 0:1
31.07.2018 Samara – CSKA Moscow X 3.10 0:0

CURRENT MONTH JUNE

DATE MATCH – HOME / AWAY TIP ODD HT/FT
01.06.2018 Rynninge – Syrianska 1 3.40 2:1
02.06.2018 Marienlyst – Kjellerup 1 3.30 2:1
03.06.2018 Cittadella – Bari X 3.20 2:2
04.06.2018 PS Tira – Barito Putera 1 2.50 1:0
05.06.2018 Parana – Fluminense 1 2.60 2:1
06.06.2018 Nykopings – Rynninge X 3.60 2:2
07.06.2018 Iceland – Ghana X 3.10 2:2
08.06.2018 Haukar – Selfoss 1/1 3.20 5:3
09.06.2018 Kristiansund – Molde 1 2.90 1:0
10.06.2018 Ranheim – Sarpsborg 08 1 3.10 2:1
11.06.2018 Värnamo – Jonkopings 2 2.63 0:1
12.06.2018 IR Reykjavik – Njardvik 2 2.35 1:2
13.06.2018 Numancia – Valladolid 2 2.80 0:3
14.06.2018 Tromsø – Vålerenga X 3.50 2:2
15.06.2018 Portugal – Spain X 3.20 3:3
16.06.2018 Gefle – Östers 2 2.30 2:4
17.06.2018 Floro – Jerv 1 4.00 3:2
18.06.2018 Gomel – Smolevichi STI 2 4.50 0:2
19.06.2018 Russia – Egypt 1 2.10 3:1
20.06.2018 VPS – Mariehamn 1 2.10 4:1
21.06.2018 Haukar – Throttur 2 2.70 2:5
22.06.2018 Melbourne Knights – Hume City 2 3.80 2:3
23.06.2018 Villarreal B – Elche 1 2.50 2:1
24.06.2018 Poland – Colombia 2 2.30 0:3
25.06.2018 Uruguay – Russia 1 2.80 3:0
26.06.2018 JJK Jyvaskyla – KPV 1 3.50 2:0
27.06.2018 Kiffen – Espoo 2 2.20 0:1
28.06.2018 Gottne IF – Pitea 2 2.25 1:2
29.06.2018 BW Linz – Buchbach 1 2.60 2:0
30.06.2018 Vålerenga – Bodo/Glimt X 3.50 2:2

CURRENT MONTH MAY

DATE MATCH – HOME / AWAY TIP ODD HT/FT
01.05.2018 Doncaster – Wimbledon X 3.25 0:1
02.05.2018 Furstenwalde – Altglienicke 2 2.90 0:1
03.05.2018 Schalding – Pipinsried X 3.60 1:1
04.05.2018 Alcorcon – Leonesa X 3.10 0:0
05.05.2018 Salernitana – Entella 1 2.50 1:0
06.05.2018 Pordenone – Renate X 2.70 1:1
07.05.2018 Kings Lynn – Slough 2 3.20 1:2
08.05.2018 Swansea – Southampton 2 2.50 0:1
09.05.2018 Wattenscheid – Bonner 2 2.90 1:2
10.05.2018 Middelfart – Jammerbugt X 3.40 1:1
11.05.2018 Lorca FC – Numancia 1 4.00 2:1
12.05.2018 Eupen – Oostende 2 2.65 0:4
13.05.2018 Kiel – Braunschweig 1 3.20 6:2
14.05.2018 AIK Stockholm – Östersunds X 3.20 1:1
15.05.2018 Vardeneset – Brodd X 5.00 1:1
16.05.2018 Wathbah – Al Taliya 1 2.50 3:1
17.05.2018 Almere – Graafschap X 3.80 1:1
18.05.2018 Karlsruher – Erzgebirge Aue X 3.10 0:0
19.05.2018 IK Frej – Landskrona 1 2.62 2:1
20.05.2018 Korona – Zaglebie 2 2.90 0:2
21.05.2018 Ranheim – Molde 1 3.30 3:1
22.05.2018 Erzgebirge Aue – Karlsruher 1 2.40 3:1
23.05.2018 Hacken – AIK Stockholm X 3.40 1:1
24.05.2018 Saarbrucken – 1860 München 2 3.30 2:3
25.05.2018 Sokolov – Vlasim 1 3.00 2:0
26.05.2018 Vidar – Arendal 1 4.00 3:0
27.05.2018 Palestino – Curico Unido 1 2.60 2:1
28.05.2018 Poli Timisoara – Din. Bucharest 2 2.40 1:3
29.05.2018 Kiffen – SalPa 2 2.30 1:3
30.05.2018 Kristianstads – Torns X 3.40 0:0

CURRENT MONTH APRIL

DATE MATCH – HOME / AWAY TIP ODD HT/FT
01.04.2018 Atletico-MG – Cruzeiro 1 2.30 3:1
02.04.2018  Oldham – Blackpool 1 2.50 2:1
03.04.2018 Juventus  –  Real Madrid 2 2.60 0:3
04.04.2018 Jeddeloh – Hannover II 1 3.20 1:0
05.04.2018 FK Vozdovac – Cukaricki X 3.00 0:0
06.04.2018 Telstar – Jong PSV X 3.60 0:0
07.04.2018 Ternana – Cittadella 1 3.50 5:1
08.04.2018 Levanger – Aalesund 2 2.40 1:2
09.04.2018 RB Leipzig – B. Leverkusen 2 3.10 1:4
10.04.2018 Wimbledon – Charlton 1 3.00 1:0
11.04.2018 Braunschweig II – Oldenburg 1 2.50 1:0
12.04.2018 Marseille – RB Leipzig 1 2.70 5:2
13.04.2018 Derry City – Waterford 1 2.10 1:0
14.04.2018 Pescara – Bari X 3.10 2:2
15.04.2018 Ranheim – Haugesund 1 2.80 4:2
16.04.2018 Adanaspor – Boluspor 2 2.20 2:3
17.04.2018 Pro Vercelli – Pescara 1 2.40 3:1
18.04.2018 Chojniczanka – Katowice 2 3.20 0:2
19.04.2018 Lausanne – Luzern 2 2.40 0:1
20.04.2018 Shelbourne – Galway 1 3.20 2:0
21.04.2018 Birmingham – Sheffield Utd 1 3.10 2:1
22.04.2018 Ravenna – Vicenza 1 2.30 2:0
23.04.2018 Odd – Sarpsborg 08 1 2.60 3:1
24.04.2018 Royston – Slough 2 2.50 0:4
25.04.2018 Babelsberg – Lokomotive Leipzig 1 2.30 4:2
26.04.2018 Poli Iasi – Astra 2 3.10 0:3
27.04.2018 Bala Town – Bangor City 2 3.20 1:2
28.04.2018 Bury – Portsmouth 1 3.60 1:0
29.04.2018 Heidenheim – Sandhausen 1 2.70 2:0
30.04.2018 Shamrock Rovers – Cork City 1 3.10 3:0

CURRENT MONTH MARCH

DATE MATCH – HOME / AWAY TIP ODD HT/FT
01.03.2018 Al Salmiya – Al Naser 1 2.40 1:0
02.03.2018 Helmond – Jong AZ 1 2.40 3:0
03.03.2018 Sonnenhof Grossaspach – Unterhaching 2 2.20 1:2
04.03.2018 Brighton – Arsenal 1X 2.00 2:1
05.03.2018 Sittard – Maastricht 1 2.10 3:0
06.03.2018 Al-Fateh – Al Batin 1 2.00 5:2
07.03.2018 Al Nasr – El Gaish 1 3.25 1:0
08.03.2018 Kuban – FC Tambov X 3.00 0:0
09.03.2018 FAC Wien – Neustadt 1 2.00 0:3
10.03.2018 Lausanne – St. Gallen 2 2.80 1:4
11.03.2018 Guingamp – Nice 2 2.70 2:5
12.03.2018 Arka – Termalica B-B. 1 2.00 4:0
13.03.2018 Barnsley – Norwich 1 2.90 1:1
14.03.2018 Kassel – Ulm 1 2.10 2:0
15.03.2018 Plzen – Sporting 1 2.70 2:0
16.03.2018 Chateauroux – Le Havre 1 2.60 2:1
17.03.2018 Birmingham – Hull 1 3.30 3:0
18.03.2018 Znojmo – Usti n. L. 1 2.10 3:0
19.03.2018 Erzgebirge Aue – G. Furth 1 2.60 2:1
20.03.2018 Crewe – Forest Green 1 2.25 3:1
21.03.2018 Sicula Leonzio – Rende 1 2.30 1:0
22.03.2018 Lecce – Andria AH1(-1.5) 2.20 2:2
23.03.2018 Austria – Slovenia Slovenia 0 3.50 3:0
24.03.2018 Forest Green – Mansfield 1 3.90 2:0
25.03.2018  Zaragoza – Sevilla B AH(-1.25) 2.10 0:1
26.03.2018 Ballymena – Ballinamallard
Wealdstone – Eastbourne
1& Over 1.5
Over 2.5
1.65
1.90
2:0
2:3
27.03.2018 Marocco – Uzbekistan AH1(-1,-1.5) 2.40 2:0
28.03.2018 Oberlausitz – Auerbach 2 3.00 1:3
29.03.2018 Brescia – Pescara 1 2.20 2:1
30.03.2018 Plymouth – Southend 1 2.60 4:0
31.03.2018 West Ham – Southampton 1 2.90 3:0

CURRENT MONTH FEBRUARY

 

 

 

 

 

 

 

 

 

 

 

 

 

 

 

 

 

 

 

 

 

 

 

 

 

 

 

 

 

 

 

 

 

 

 

 

 

 

 

 

 

 

 

 

 

 

 

 

 

 

 

 

 

 

 

 

 

 

 

 

 

 

 

 

 

 

 

 

 

 

 

 

 

 

 

 

 

 

 

 

 

 

 

 

 

 

 

 

 

 

 

 

 

 

 

 

 

 

 

 

 

 

 

 

 

 

 

 

 

 

 

 

 

 

 

 

 

 

 

 

 

 

 

 

 

 

 

 

 

 

 

 

 

 

 

 

 

 

 

 

 

 

 

 

 

 

 

 

 

 

 

 

 

 

 

 

 

 

 

 

 

 

 

 

 

 

 

 

 

 

DATE MATCH – HOME / AWAY TIP ODD HT/FT
01.02.2018 Al Ahli – That Ras X 3.10 0:0
02.02.2018 Antwerp – Waasland-Beveren 2 3.75 1:2
03.02.2018 Burnley – Manchester City BTS/Yes 2.25 1:1
04.02.2018 Liverpool – Tottenham X 3.75 2:2
05.02.2018 Watford – Chelsea 1 6.50 4:1
06.02.2018 Zwolle – Heerenveen 1 2.80 3:2
07.02.2018 Anorthosis – Omonia 1 2.50 1:2
08.02.2018 Grenoble – Strasbourg 2 3.25 0:3
09.02.2018 Oss – Almere City 1 3.60 5:1
10.02.2018 Crotone – Atalanta X 3.50 1:1
11.02.2018 Huddersfield – Bournemouth 1 3.10 4:1
12.02.2018 Hobro – Aarhus 2 2.75 0:1
13.02.2018 Tamworth – Blyth Spartans 1 3.00 0:3
14.02.2018 Real Madrid – Paris SG 1 2.40 3:1
15.02.2018 Real Sociedad – Salzburg X 3.40 2:2
16.02.2018 Ankaragucu – Rizespor 2.50 2:4
17.02.2018 Schalke – Hoffenheim 1 2.10 2:1
18.02.2018  Bologna – Sassuolo 1 2.60 2:1
19.02.2018 Eintracht Frankfurt – RB Leipzig 1 2.70 2:1
20.02.2018 Barnet – Carlisle 2 2.70 2:3
21.02.2018 Elazigspor -Giresunspor 1 2.50 2:1
22.02.2018  Lokomotiv Moscow- Nice 1 2.50 1:0
23.02.2018 Regensburg-Dusseldorf 1 2.20 4:3
24.02.2018 Ternana -Bari 2 2.80 1:2
25.02.2018 Cardiff -Bristol City 1 2.40 1:0
26.02.2018 Atromitos -AEK Athens FC X 3.00 1:1
27.02.2018 Reading -Sheffield Utd 2 2.60 1:3
28.02.2018 Pyunik – Banants 1 2.30 2:0

CURRENT MONTH JANUARY

DATE MATCH – HOME / AWAY TIP ODD HT/FT
01.01.2018 Barnet – Swindon 2 2.40 1:2
02.01.2018 Southampton – Crystal Palace 2 3.90 1:2
03.01.2018 Aves – Moreirense 2 4.00 1:2
04.01.2018 Setubal – Estoril X 3.20 2:2
05.01.2018 Chievo – Udinese X 3.20 1:1
06.01.2018 Benevento – Sampdoria 1 3.30 3:2
07.01.2018 Anorthosis – AEK Larnaca 1 2.30 3:1
08.01.2018 Churchill Brothers – East Bengal X 4.50 1:1
09.01.2018 El Gaish – Alassiouty 1 2.80 2:1
10.01.2018 Real Madrid – Numancia X 9.00 2:2
11.01.2018 Al Nasr – Al Sharjah 2 2.70 1:2
12.01.2018 Strasbourg – Guingamp 2 2.80 0:2
13.01.2018 Chelsea – Leicester X 6.00 0:0
14.01.2018 Liverpool – Manchester City 1 3.10 4:3
15.01.2018 Jordan – Denmark 1 6.50 3:2
16.01.2018 Bordeaux – Caen 2 5.75 0:2
17.01.2018 Guingamp – Lyon 2 2.00 0:2
18.01.2018 Uganda – Namibia 2 3.20 0:1
19.01.2018 Orleans – Auxerre 2 2.50 2:3
20.01.2018 Everton – West Brom X 3.00 1:1
21.01.2018 Southampton – Tottenham X 3.75 1:1
22.01.2018 Swansea – Liverpool 2 2.00 1:0
23.01.2018 Livingston – Falkirk 2 2.90 0:1
24.01.2018 Foz do Iguacu – Toledo X 3.30 1:1
25.01.2018 Biskra – ES Setif 1 2.80 1:0
26.01.2018 Dijon – Rennes 1 2.70 2:1
27.01.2018 Wrexham – Tranmere X 3.10 2:2
28.01.2018 Congo – Libya X 2.70 1:1
29.01.2018 Guimaraes B – Covilha 1 2.30 3:0
30.01.2018 Dergview – Loughgall 2 2.30 1:5
31.01.2018 St. Liege – Club Brugge KV 1 2.70 4:1

CURRENT MONTH DECEMBER

DATE MATCH – HOME / AWAY TIP ODD HT/FT
01.12.2017 Dijon – Bordeaux 1 3.25 3:2
02.12.2017 Backa – FK Crvena zvezda X 8.00 2:2
03.12.2017 Roda – Heerenveen 1 4.20 2:1
04.12.2017 Verona – Genoa 2 2.25 0:1
05.12.2017 Bayern Munich – Paris SG 1 2.50 3:1
06.12.2017 Maribor – Sevilla X 6.00 1:1
07.12.2017 Al Ahli Doha – Al Rayyan 1 5.00 2:0
08.12.2017
09.12.2017
10.12.2017 Deportivo Moron – Guillermo Brown 1 2.50 1:0
11.12.2017 Lazio – Torino 2 6.50 1:3
12.12.2017 Genoa – Atalanta 2 2.25 1:2
13.12.2017 Hibernians – Floriana 2 3.10 0:1
14.12.2017 Heracles – Sparta Rotterdam 1 2.40 3:2
15.12.2017 Sevilla – Levante X 6.00 0:0
16.12.2017 Troyes – Amiens 1 2.50 1:0
17.12.2017 Crotone – Chievo 1 3.00 1:0
18.12.2017 Malaga – Betis 2 3.50 0:2
19.12.2017 Mainz – Stuttgart 1 3.10 3:1
20.12.2017 Amiens – Nantes 2 2.70 0:1
21.12.2017 Eibar – Girona 1 2.10 4:1
22.12.2017 Cagliari – Fiorentina 2 2.35 0:1
23.12.2017 Stoke – West Brom 1 3.25 3:1
24.12.2017 Ajax – Willem II BTS/Yes 2.50 3:1
25.12.2017
26.12.2017 Iraq – Qatar 1 3.10 2:1
27.12.2017 Parma – Spezia X 3.00 0:0
28.12.2017 Saudi Arabia – Oman 2 3.70 0:2
29.12.2017 Qatar – Bahrain X 3.20 1:1
30.12.2017 Newcastle – Brighton X 3.20 0:0
31.12.2017

CURRENT MONTH NOVEMBER

DATE MATCH – HOME / AWAY TIP ODD HT/FT
01.11.2017 Besiktas – Monaco X 3.60 1:1
02.11.2017 Young Boys – Dyn. Kiev 1 2.50 0:1
03.11.2017 Ebreichsdorf – Horn X 3.25 1:1
04.11.2017 Huddersfield – West Brom 1 2.50 1:0
05.11.2017 Apollon Larissa – Veria 2 4.90 1:3
06.11.2017 Deportivo Riestra – Villa Dalmine 1 2.60 1:1
07.11.2017 Deportivo Armenio – Midland 2 3.25 0:0
08.11.2017 El Porvenir – Club Lujan X 3.00 0:1
09.11.2017 Rampla Juniors – Sisley X 3.00 1:1
10.11.2017 Poland – Uruguay 1 2.60 0:0
11.11.2017 Zambia – Cameroon 3+ 2.50 2:2
12.11.2017 Toledo – Ferrol 1 2.50 2:1
13.11.2017 Victoriano A. – Lugano 3+ 2.50 2:1
14.11.2017 Ashkelon (Isr) – Beitar Tel Aviv (Isr) 2 3.50 3:4
15.11.2017 MFM FC (Nig) – Niger Tornadoes (Nig) 2 3.50 0:0
16.11.2017 Chapecoense-SC – Vitoria 3+ 2.40 2:1
17.11.2017 VfB Stuttgart – Dortmund 1 4.20 2:1
18.11.2017 Crystal Palace – Everton X 3.25 2:2
19.11.2017 Den Haag – Heracles 1 2.15 4:1
20.11.2017 Tigre – Estudiantes L.P. 1 2.60 2:0
21.11.2017 Fenix – Atletico Atlanta 1 2.50 3:1
22.11.2017 Juventus – Barcelona X 3.60 0:0
23.11.2017 Skenderbeu – Dyn. Kiev 1 7.00 3:2
24.11.2017 West Ham – Leicester X 3.40 1:1
25.11.2017 Venezia – Novara 2 4.75 1:3
26.11.2017 Tottenham – West Brom X 4.20 1:1
27.11.2017 QPR – Brentford X 3.70 2:2
28.11.2017 Amiens – Dijon 1 2.30 2:1
29.11.2017 Angers – Rennes 2 3.80 1:2
30.11.2017 Manama Club – Malkia X 3.25 2:2
31.11.2017

Best HT FT Predictions Sure Odds Bet Wins Matches

 

 

 

 

 

 

 

 

 

 

 

 

 

 

 

 

 

 

 

 

 

 

 

 

 

 

 

 

 

 

 

 

 

 

 

 

 

 

 

 

 

 

 

 

 

 

 

 

 

 

 

 

 

 

 

 

 

 

 

 

 

 

 

 

 

 

 

 

 

 

 

 

 

 

 

 

 

 

 

 

 

 

 

 

 

 

 

 

 

 

 

 

1/2 2/1 fixed matches free. fixed matches ht/ft. ht/ft fixed match. free tips 2/1. fixed matches 2/1. fixed match 100% sure. ht/ft fixed. sure tips 2/1 free. 1X2 betting tips. 2/1 1/2 tips free. fixed ht ft. Today fixed Matches. ht ft match. tip 2/1. free fixed bet. Best HT FT Predictions Sure Odds Bet Wins Matches. ht/ft soccer tips. free betting tips ht/ft. fixed match ht ft. tips 1/2 Fixed Matches. HT FT. 2-1. 1-2. Tips 1×2. Predictions. Free Soccer. Best HT FT Predictions Sure Odds Bet Wins Matches. Fixed Tips. Sure Profit. Secure Match. Best Tip 1×2. Sure Tip. Today Fixed Match. Vip Tips 1×2. Sure 100%. Real Matches. footbal predictions. today fixed match. correct scores sure 100% Over 85% WIN RATE! 100% Satisfaction Guarantee easy money. fixed match. fixed tips. gambling. paid matches. soccer matches. soccer tips. ht/ft prediction tips. fixed match tips. free fixed matches today. Sport Bet Sure Predictions. free fixed matches tips. tips 1×2 free 100. free soccer predictions ht/ft. ht/ft predictions for today. Best HT FT Predictions Sure Odds Bet Wins Matches. fixed match 1/2 free. ht/ft prediction sites. soccer prediction ht ft. If you arrived to our website searching for free fixed matches. fixed match tips free. free match tips. Best HT FT Predictions Sure Odds Bet Wins Matches. best fixed matches. pronostic ht ft. info tips. free manipulated matches. Bet Fixed Matches Tomorrow. Weekend Fixed Matches. 1/2 tips free. sure win bet predictions. free fixed. betting 1×2. htft. 1/2 or 2/1 free tips. Soccer Predictions. fixedmatches. betting tips ht/ft. ht/ft betting tips. best ht/ft predictions. fixed games for today. 100 sure soccer prediction sites. Analize. Best HT FT Predictions Sure Odds Bet Wins Matches. Best HT FT Predictions Sure Odds Bet Wins Matches fixed have monthy subscription. this matches is analyxed matches with all info for this match. this matches is sure over 95% and profit is guaranted. We have real fixed matches. Not for free. Best HT FT Predictions Sure Odds Bet Wins Matches As we also pay a lot money to get the matches. we can not give you any free fixed match. 1X2 daily tips best Odds Best football tips betting offers Betting tips bet tips football betting predictions football betting tips football prediction football predictions football predictor football tips free bets Free Betting Tips Free Daily Betting Tips free football picks Free Football Tips freepicks free picks Free soccer picks free soccer prediction free soccer tips Free Soccer Tips for today Free Tips Free Tips 1X2 no deposit free Best HT FT Predictions Sure Odds Bet Wins Matches bet Paid and Free Soccer Picks Picks prediction football soccer betting tips soccer picks soccer prediction soccer predictions soccer prediction sites soccer tips tips football weekend football tips.easy money. fixed match. fixed tips. gambling. paid matches. soccer matches. soccer tips. sports betting. sure win

Best HT FT Predictions Sure Odds Bet Wins Matches Best HT FT Predictions Sure Odds Bet Wins Matches. Gambling involves high psychological and financial risk. Best HT FT Predictions Sure Odds Bet Wins Matches cannot be held responsible for any loss or damage as consequence of decisions based on information. betting advices or links provided on this site. Best HT FT Predictions Sure Odds Bet Wins Matches. The visitor is warned to act exclusively at his own discretion and risk. Best HT FT Predictions Sure Odds Bet Wins Matches, soccer matches predictions, prediction football matches, prediction of football matches, predictions for today matches, predictions for soccer matches, today matches prediction, matches predictions, soccer matches for today, vip tips soccer, soccer vip tips, free vip soccer tips, vip betting tips, www.vip.hr, vip football tips, vip bet tips, vip tips.com
Best HT FT Predictions Sure Odds Bet Wins Matches

ticket-offer-sure-vip-matches-300x95.png (300×95)THE BEST VIP TICKETS  # COMBINED FIXED MATCHES # MAXIMUM BETTING STAKE
Here on advice-betting you can find ready made betting tickets that will increase your winnings. If you are not satisfied with the odds from our free matches and you want to make profit at once, than the best solution for you are our ready made Tickets.The tickets are wisely created by our experienced betting experts who guarantee your success. With the tickets for a little money you can make big profit. Our team is consisted of experienced betting experts and professionals who have contacts inside the football clubs world wide, so all our tips are highly confident and 100%

senka
NEXT VIP TICKET COMBO MATCHES:
13.10.2018 (SATURDAY)  ODD IS: 784.14

Tickets coming from strong source no chance for lose ! Guaranteed Profit !!!
We Have Sure Tickets Combined Betting ( One ticket include 4 Matches )

TOTAL PRICE FOR THE TICKET IS 100 EUR = 50 EUR !

Contact us What's app & Viber : +389 78 670 897 (24/7 Online)

PRICE AND MORE INFO :  E-MAIL : GEMBET@NET.HR 
senka

weekend ticket offer
HOW WE DO THIS             HOW WE DO THIS 

First, contact us on our e-mail. Second, choose one of the offers.
Third, makeing a deal with our team (payment).
The match is 100% sure, we have all done. Contact with the menager that are in contact with you, listen the instuctions and make money.
DON'T ASK FOR FREE AND AFTER MATCHES ONLY SERIOUS CLIENTS
If you have any questions, don’t hesitate to contact us at anytime.
After your payment inform us and check mail for 30 min to get a VIP TICKET

NEXT NEW COMBO TICKET MATCHES PLAY IN : 13.10.2018


Vip ticket 13.10.2018 SATURDAY

DATE MATCH TIP ODD FT
13.10.2018 NEXT MATCH ?? ?? ??
13.10.2018 NEXT MATCH ?? ?? ??
13.10.2018 NEXT MATCH ?? ?? ??
13.10.2018 NEXT MATCH ?? ?? ??
Total odds: 784.14

Vip ticket 06.10.2018 SATURDAY

DATE MATCH TIP ODD FT
06.10.2018 Barnet – Solihull X/1 5.50 2:0
06.10.2018 Bury – Mansfield 2/X 13.00 0:1
06.10.2018 Plymouth – Wimbledon 1 3.00 1:0
06.10.2018 Millwall – Aston Villa 1 2.70 2:1
Total odds: 579.15

Vip ticket 01.09.2018 SATURDAY

DATE MATCH TIP ODD FT
01.09.2018 Peterborough – Doncaster 2/X 15.00 1:1
01.09.2018 Birmingham – QPR X/X 5.50 0:0
01.09.2018 Walsall – Blackpool X 3.40 0:0
01.09.2018 Grimsby Town – Yeovil 2 3.00 0:1
Total odds: 841.50

Vip ticket 25.08.2018 SATURDAY

DATE MATCH TIP ODD FT
25.08.2018 Macclesfield – Mansfield 2/X 15.00 1:1
25.08.2018 Milton Keynes – Exeter X/1 5.50 1:0
25.08.2018 Chesterfield – Barnet 2 3.50 0:1
25.08.2018 Harrogate – Solihull 1 2.25 3:1
Total odds: 649.68

Vip ticket 18.08.2018 SATURDAY

DATE MATCH TIP ODD FT
18.08.2018 Preston – Stoke 1/X 15.00 2:2
18.08.2018 Barnsley – Wimbledon X/X 6.00 0:0
18.08.2018 Peterborough – Luton 1 3.25 3:1
18.08.2018 Port Vale – Crawley Town 1 2.10 1:0
Total odds: 614.25

Vip ticket 11.08.2018 SATURDAY

DATE MATCH TIP ODD FT
11.08.2018 Rizespor – Kasimpasa 1/2 30.00 2:3
11.08.2018 Livingston – Kilmarnock X/X 5.50 0:0
11.08.2018 Lincoln City – Swindon 1 2.20 4:1
11.08.2018 Sutton – Salford 1 2.10 2:1
Total odds: 762.30

Vip ticket 04.08.2018 SATURDAY

DATE MATCH TIP ODD FT
04.08.2018 Bristol City – Nottingham 1/X 15.00 1:1
04.08.2018 Preston – QPR X/1 5.40 1:0
04.08.2018 Walsall – Plymouth 1 2.60 2:1
04.08.2018 Maidenhead – Gateshead 2 4.20 1:3
Total odds: 884.52

Vip ticket 28.08.2018 SATURDAY

DATE MATCH TIP ODD FT
28.07.2018 St. Truiden – Cercle Brugge X/X 5.30 0:0
28.07.2018 AC Kajaani – Klubi 04 2/X 15.00 2:2
28.07.2018 Fortuna Koln – Munster 2 2.80 1:4
28.07.2018 Poli Iasi – Astra X 3.00 1:1
Total odds: 667.80

Vip ticket 07.07.2018 SATURDAY

DATE MATCH TIP ODD FT
07.07.2018 Bragantino – Tombense X/1 5.50 2:1
07.07.2018 JaPS – Viikingit 2/X 15.00 1:1
07.07.2018 Elverum – Fram Over 5.5 5.50 7:0
07.07.2018 Husqvarna – Torns 2 2.25 0:1
Total odds: 816.75

Vip ticket 23.06.2018 SATURDAY

DATE MATCH TIP ODD FT
23.06.2018 Coritiba – Figueirense 1/X 15.00 1:1
23.06.2018 Elverum – Honefoss X/X 7.50 1:1
23.06.2018 Oita – Avispa Fukuoka 1 3.00 1:0
23.06.2018 Villarreal B – Elche 1 2.50 2:1
Total odds: 843.75


Vip ticket 16.06.2018 SATURDAY

DATE MATCH TIP ODD FT
16.06.2018 JJK Jyvaskyla – AC Kajaani 2/X 15.00 2:2
16.06.2018 Frosinone – Palermo X/1 5.00 2:0
16.06.2018 Nest-Sotra – Viking 1 4.00 5:0
16.06.2018 Gefle – Östers 2 2.25 2:4
Total odds: 675.00

Vip ticket 09.06.2018 SATURDAY

DATE MATCH TIP ODD FT
09.06.2018 SalPa – GrIFK X/1 5.80 1:0
09.06.2018 Elverum – Fredrikstad 1/X 15.00 1:1
09.06.2018 Grorud – Alta X 4.00 0:0
09.06.2018 Vikingur Reykjavik – Vestmannaeyjar 1 2.20 2:1
Total odds: 765.60

VIP-TIKET-GEM-BET.png (1366×768)
Vip ticket 06.06.2018 WEDNESDAY

DATE MATCH TIP ODD FT
06.06.2018 Nykopings – Rynninge 1/X 15.00 2:2
06.06.2018 Cittadella – Frosinone X/X 5.50 1:1
06.06.2018 Sudtirol – Cosenza 1 2.45 1:0
06.06.2018 PSIS Semarang – Pusamania Borneo 1/1 3.40 1:0
Total odds: 687.22

gembettiket.png (1366×768)
Vip ticket 02.06.2018 SATURDAY

DATE MATCH TIP ODD FT
02.06.2018 Bragantino – Operario X/X 6.00 0:0
02.06.2018 Tenerife – Albacete 2/X 15.00 1:1
02.06.2018 IK Frej – Östers 1 3.80 3:2
02.06.2018 Honka – Ilves 1 2.20 4:1
Total odds: 752.40

GEMBETS.png (1366×768)
Vip ticket 30.05.2018 WEDNESDAY

DATE MATCH TIP ODD FT
30.05.2018 FeralpiSalo – Catania 1/X 15.00 1:1
30.05.2018 Lilleström – Brann X/1 6.50 4:1
30.05.2018 Cosenza – Sambenedettese  1/1 3.40 2:1
30.05.2018 Viterbese – Sudtirol X 2.90 2:2
Total odds: 961.35

GEMBET-1.png (1366×768)
Vip ticket 26.05.2018 SATURDAY

DATE MATCH TIP ODD FT
26.05.2018 AIK Stockholm – Norrkoping 1/X 15.00 3:3
26.05.2018 Paganese – Fondi X/1 5.50 2:1
26.05.2018 Egersunds – Skeid X 3.80 1:1
26.05.2018 MuSa – GrIFK 2 2.50 1:4
Total odds: 783.75

gem-bet-vip-ticket.png (1366×768)

Vip ticket 23.05.2018 WEDNESDAY

DATE MATCH TIP ODD FT
23.05.2018 Hacken – AIK Stockholm X/X 5.50 1:1
23.05.2018 Jonkopings – Degerfors 2/X 15.00 2:2
23.05.2018 Landskrona – Halmstad X 3.50 0:0
23.05.2018 Sambenedettese – Piacenza 1 1.95 3:1
Total odds: 563.06

GEM-BET-VIP-TICKET.png (1366×768)
Vip ticket 19.05.2018 SATURDAY

DATE MATCH TIP ODD FT
19.05.2018 Leganes – Betis X/1 5.80 3:2
19.05.2018 Slovacko – Zlin 1/X 11.00 1:1
19.05.2018 JaPS – Mikkeli 2/2 5.00 0:3
19.05.2018 Livorno – Lecce 1 2.70 3:1
Total odds: 861.30

GEMBET-VIP-TICKET.png (1366×768)
Vip ticket 16.05.2018 WEDNESDAY

DATE MATCH TIP ODD FT
16.05.2018 Lubeck – Wolfsburg II 1/1 4.60 3:2
16.05.2018 Legionowo – Garbarnia 2/X 15.00 2:2
16.05.2018 Hammarby – Malmo FF 1 2.40 3:2
16.05.2018 Tishreen – Al Shorta 2 4.50 0:1
Total odds: 745.20

1321.png (1366×768)
Vip ticket 12.05.2018 SATURDAY

DATE MATCH TIP ODD FT
12.05.2018 Montpellier – Troyes 2/X 18.00 1:1
12.05.2018 Palermo – Cesena X/X 5.80 0:0
12.05.2018 Carpi – Cittadella X 3.30 1:1
12.05.2018 Getafe – Atl. Madrid 2 2.30 0:1
Total odds: 792.39

TIEKTA.png (1366×768)

Vip ticket 09.05.2018 WEDNESDAY

DATE MATCH TIP ODD FT
09.05.2018 Oostende – Lokeren 2/2 4.50 1:3
09.05.2018 Luneburger Hansa – Oldenburg 1/X 15.00 1:1
09.05.2018 Geylang – Young Lions X 3.50 1:1
09.05.2018 Suwalki – Chrobry Glogow X 3.10 1:1
Total odds: 732.37

Vip ticket 05.05.2018 SATURDAY

DATE MATCH TIP ODD FT
05.05.2018 Arendal – K. Oslo 2/X 13.00 1:1
05.05.2018 Paderborn – Wehen X/1 5.00 3:1
05.05.2018 Crewe – Cheltenham X/1 7.00 2:1
05.05.2018 Cambridge Utd – Port Vale 1 2.00 5:0
Total odds: 910.00

GEMBET-TICKET.png (1366×768)
Vip ticket 02.05.2018 WEDNESDAY

DATE MATCH TIP ODD FT
02.05.2018 Fredericia – Roskilde X/X 5.50 0:0
02.05.2018 Sp. Moscow 2 – Dynamo SPB 1/X 15.00 2:2
02.05.2018 Alloa – Raith 1 3.40 2:0
02.05.2018 Kings Lynn – Weymouth 1/1 3.00 3:0
Total odds: 841.50

GEMBET.png (1366×768)
Vip ticket 28.04.2018 SATURDAY

DATE MATCH TIP ODD FT
28.04.2018 Blackpool – Shrewsbury 2/X 15.00 1:1
28.04.2018 Accrington – Lincoln City 1/1 4.00 1:0
28.04.2018 Colchester – Swindon X/X 5.50 0:0
28.04.2018 Middlesbrough – Millwall 1 2.00 2:0
Total odds: 660.00

dsadsa.png (1366×768)Vip ticket 24.04.2018 TUESDAY

DATE MATCH TIP ODD FT
24.04.2018 Morecambe – Cambridge Utd X/X 5.50 0:0
24.04.2018 Poole Town – Whitehawk 1/X 15.00 1:1
24.04.2018 Doncaster – Blackburn X/2 5.30 0:1
24.04.2018 Niort – GFC Ajaccio 1 2.00 4:1
Total odds: 874.50

Vip ticket 21.04.2018 SATURDAY

DATE MATCH TIP ODD FT
21.04.2018 Preston – Norwich X/X 5.50 0:0
21.04.2018 Shrewsbury – Bury 1/X 15.00 1:1
21.04.2018 Cambridge Utd – Cheltenham 1 2.60 4:3
21.04.2018 Bromley – Boreham Wood 1 3.00 3:2
Total odds: 643.50

Vip ticket 14.04.2018 SATURDAY

DATE MATCH TIP ODD FT
14.04.2018 Palermo – Cremonese X/X 5.60 1:1
14.04.2018 Start – Vålerenga 2/2 4.50 1:5
14.04.2018 TSV Steinbach – Walldorf 2/X 15.00 1:1
14.04.2018 Silivrispor – Fethiyespor 2 2.10 0:2
Total odds: 793.80

Vip ticket 07.04.2018 SATURDAY

DATE MATCH TIP ODD FT
07.04.2018 Brighton – Huddersfield X/X 5.40 1:1
07.04.2018 Barnsley – Sheffield Utd 1/1 6.10 3:2
07.04.2018 Gillingham FC – Doncaster X 3.30 0:0
07.04.2018 Walsall – Bury X/1 5.30 1:0
Total odds: 576.12

Vip ticket 31.03.2018 SATURDAY

DATE MATCH TIP ODD FT
31.03.2018 Lafnitz – Bad Gleichenberg X/X 5.40 0:0
31.03.2018 VfL Osnabruck – Hansa Rostock 2/X 13.00 1:1
31.03.2018 Bautzen – Hertha Berlin II X/X 5.00 0:0
31.03.2018 Rende – Monopoli 2 2.80 0:1
Total odds: 982.80

Vip ticket 27.03.2018 TUESDAY

DATE MATCH TIP ODD FT
27.03.2018 Brackley – Boston X/1 5.00 4:1
27.03.2018 Concord – East Thurrock 2 3.10 1:4
27.03.2018 Marine – Nantwich X 3.80 1:1
27.03.2018 FSV Frankfurt – Hoffenheim II 1/1 5.00 2:0
Total odds: 294.50

Vip ticket 24.03.2018 SATURDAY

DATE MATCH TIP ODD FT
24.03.2018 Aldershot – Boreham Wood 1 3.00 2:0
24.03.2018 Exeter – Swindon 1 2.90 3:1
24.03.2018 Milton Keynes – Blackpool X/X 5.40 0:0
24.03.2018 Cordoba – R. Oviedo 2/X 15.00 1:1
Total odds: 704.70


Vip ticket 16.03.2018 FRIDAY

DATE MATCH TIP ODD FT
16.03.2018 Wattens – A. Lustenau 1/1 4.33 2:0
16.03.2018 Sochaux – Tours X/X 5.50 0:0
16.03.2018 FC Emmen – Helmond X/X 6.70 0:0
16.03.2018 F. Dusseldorf – A. Bielefeld X/1 5.30 4:2
Total odds: 845.67

Vip ticket 07.03.2018 WEDNESDAY

DATE MATCH TIP ODD FT
07.03.2018  Al Nasr – El Gaish 1/1 5.20 1:0
07.03.2018 Shonan – Sagan Tosu 1/1 5.60 1:0
07.03.2018 Kassel – Hoffenheim II 1 3.00 2:1
07.03.2018 Pontevedra – Saguntino 1 3.60 2:1
Total odds: 314.49

Vip ticket 02.03.2018 FRIDAY

DATE MATCH TIP ODD FT
02.03.2018 Nice – Lille 1/1 2.70 2:1
02.03.2018 Clermont – Reims X/1 5.50 2:1
02.03.2018 Triestina – Bassano X 3.20 0:0
02.03.2018 Kaiserslautern – Union Berlin 1 3.00 4:3
Total odds: 142.56

Vip ticket 24.02.2018 Saturday

DATE MATCH TIP ODD FT
24.02.2018 Southport – Curzon Ashton 1/1 3.25 3:1
24.02.2018 East Thurrock – Bath City 2/X 13.00 1:1
24.02.2018 Fermana – Triestina X/X 5.50 0:0
24.02.2018 H. Rostock – Magdeburg 1 3.20 1:0
Total odds: 743.60

Vip ticket 17.02.2018 Saturday

DATE MATCH TIP ODD FT
17.02.2018 Antwerp – Oostende X 3.50 0:0
17.02.2018 Cardiff – Middlesbrough 1 2.55 1:0
17.02.2018 Southend – Portsmouth 1 3.00 3:1
17.02.2018 Curzon Ashton – York 1 4.80 4:1
Total odds: 128.52

Vip ticket 10.02.2018 Saturday

DATE MATCH TIP ODD FT
10.02.2018 Crotone – Atalanta X 3.50 1:1
10.02.2018 Villarreal – Alaves 2 5.50 1:2
10.02.2018 Leganes – Eibar 2 3.10 0:1
10.02.2018 AFC Wimbledon – Northampton 2 3.90 1:3
Total odds: 232.73 WIN

Vip ticket 03.02.2018 Saturday

DATE MATCH TIP ODD FT
03.02.2018 Bournemouth – Stoke 1 2.00 2:1
03.02.2018 Derby – Brentford 1 2.25 3:0
03.02.2018 Burnley – Manchester City BTS/Yes 2.25 1:1
03.02.2018 Colchester – Newport 1 2.30 2:0
Total odds: 23.28 WIN

Vip ticket 27.01.2018 Saturday

DATE MATCH TIP ODD FT
27.01.2018 Bromley – Halifax 1 2.10 3:0
27.01.2018 Halifax – Hartlepool 1 2.00 4:3
27.01.2018 Leyton Orient – Aldershot 2 2.50 2:3
27.01.2018 Ebbsfleet – Boreham Wood 2 3.00 0:3
Total odds: 31.50 WIN

Vip ticket 20.01.2018 Saturday

DATE MATCH TIP ODD FT
20.01.2018 Bristol Rovers – Bradford 1 2.30 3:1
20.01.2018 Peterborough – Oldham 1 2.10 3:0
20.01.2018 Rotherham – Portsmouth 1 2.50 1:0
20.01.2018 Coventry – Swindon 1 2.25 3:1
Total odds: 27.16 WIN

Vip ticket 13.01.2018 Saturday

DATE MATCH TIP ODD FT
13.01.2018 Crystal Palace – Burnley 1 2.10 1:0
13.01.2018 West Brom – Brighton 1 2.20 2:0
13.01.2018 Rennes – Marseille 2 2.25 0:3
13.01.2018 Crawley Town – Barnet 1 2.30 2:0
Total odds: 23.90 WIN

Vip ticket 06.01.2018 Saturday

DATE MATCH TIP ODD FT
06.01.2018 Toulouse – Nice 1 2.50 1:0
06.01.2018 Spal – Lazio 5+ 2.50 2:5
06.01.2018 Genoa – Sassuolo 1 2.20 1:0
06.01.2018 Benevento – Sampdoria BTS/Yes 1.80 3:2
Total odds: 24.75 WIN

Vip ticket 30.12.2017 Saturday

DATE MATCH TIP ODD FT
30.12.2017 Bournemouth – Everton 1 2.40 2:1
30.12.2017 Milton Keynes Dons – Peterborough 1 2.40 1:0
30.12.2017 Cuneo – Piacenza 1 2.50 1:0
30.12.2017 Boreham Wood – Torquay 1 1.90 2:0
Total odds: 27.36 WIN

Vip ticket 23.12.2017 Saturday

DATE MATCH TIP ODD FT
23.12.2017 Brighton – Watford 1 2.45 1:0
23.12.2017 Stoke – West Brom 1 2.35 3:1
23.12.2017 Shrewsbury – Portsmouth 1 2.50 2:0
23.12.2017 Stevenage – Chesterfield 1 2.20 5:1
Total odds: 31.66 WIN


Soccer Predictions Today Best Wins Odds 1X2. Fixed Tips. Sure Profit. Secure Match. Best Tip 1×2. Sure Tip. Today Fixed Match Fixed

Best HT FT Predictions Sure Odds Bet Wins Matches

 

 

 

 

 

 

 

 

 

 

 

 

 

 

 

 

 

 

 

 

 

 

 

 

 

 

 

 

 

 

 

 

 

 

 

 

 

 

 

 

 

 

 

 

 

 

 

 

 

 

 

 

 

1/2 2/1 fixed matches free. fixed matches ht/ft. ht/ft fixed match. free tips 2/1. fixed matches 2/1. fixed match 100% sure. ht/ft fixed. sure tips 2/1 free. 1X2 betting tips. 2/1 1/2 tips free. fixed ht ft. Today fixed Matches. ht ft match. tip 2/1. free fixed bet. Best HT FT Predictions Sure Odds Bet Wins Matches. ht/ft soccer tips. free betting tips ht/ft. fixed match ht ft. tips 1/2 Fixed Matches. HT FT. 2-1. 1-2. Tips 1×2. Predictions. Free Soccer. Best HT FT Predictions Sure Odds Bet Wins Matches. Fixed Tips. Sure Profit. Secure Match. Best Tip 1×2. Sure Tip. Today Fixed Match. Vip Tips 1×2. Sure 100%. Real Matches. footbal predictions. today fixed match. correct scores sure 100% Over 85% WIN RATE! 100% Satisfaction Guarantee easy money. fixed match. fixed tips. gambling. paid matches. soccer matches. soccer tips. ht/ft prediction tips. fixed match tips. free fixed matches today. Sport Bet Sure Predictions. free fixed matches tips. tips 1×2 free 100. free soccer predictions ht/ft. ht/ft predictions for today. Best HT FT Predictions Sure Odds Bet Wins Matches. fixed match 1/2 free. ht/ft prediction sites. soccer prediction ht ft. If you arrived to our website searching for free fixed matches. fixed match tips free. free match tips. Best HT FT Predictions Sure Odds Bet Wins Matches. best fixed matches. pronostic ht ft. info tips. free manipulated matches. Bet Fixed Matches Tomorrow. Weekend Fixed Matches. 1/2 tips free. sure win bet predictions. free fixed. betting 1×2. htft. 1/2 or 2/1 free tips. Soccer Predictions. fixedmatches. betting tips ht/ft. ht/ft betting tips. best ht/ft predictions. fixed games for today. 100 sure soccer prediction sites. Analize. Best HT FT Predictions Sure Odds Bet Wins Matches. Best HT FT Predictions Sure Odds Bet Wins Matches fixed have monthy subscription. this matches is analyxed matches with all info for this match. this matches is sure over 95% and profit is guaranted. We have real fixed matches. Not for free. Best HT FT Predictions Sure Odds Bet Wins Matches As we also pay a lot money to get the matches. we can not give you any free fixed match. 1X2 daily tips best Odds Best football tips betting offers Betting tips bet tips football betting predictions football betting tips football prediction football predictions football predictor football tips free bets Free Betting Tips Free Daily Betting Tips free football picks Free Football Tips freepicks free picks Free soccer picks free soccer prediction free soccer tips Free Soccer Tips for today Free Tips Free Tips 1X2 no deposit free Best HT FT Predictions Sure Odds Bet Wins Matches bet Paid and Free Soccer Picks Picks prediction football soccer betting tips soccer picks soccer prediction soccer predictions soccer prediction sites soccer tips tips football weekend football tips.easy money. fixed match. fixed tips. gambling. paid matches. soccer matches. soccer tips. sports betting. sure win

Best HT FT Predictions Sure Odds Bet Wins Matches Best HT FT Predictions Sure Odds Bet Wins Matches. Gambling involves high psychological and financial risk. Best HT FT Predictions Sure Odds Bet Wins Matches cannot be held responsible for any loss or damage as consequence of decisions based on information. betting advices or links provided on this site. Best HT FT Predictions Sure Odds Bet Wins Matches. The visitor is warned to act exclusively at his own discretion and risk. Best HT FT Predictions Sure Odds Bet Wins Matches, soccer matches predictions, prediction football matches, prediction of football matches, predictions for today matches, predictions for soccer matches, today matches prediction, matches predictions, soccer matches for today, vip tips soccer, soccer vip tips, free vip soccer tips, vip betting tips, www.vip.hr, vip football tips, vip bet tips, vip tips.com
Best HT FT Predictions Sure Odds Bet Wins Matches

Soccer Predictions Today Best Wins Odds 1X2. Fixed Tips. Sure Profit. Secure Match. Best Tip 1×2. Sure Tip. Today Fixed Match Fixedjfvwck.jpg (270×70)

Soccer Predictions Today Best Wins Odds 1X2 FixedSoccer

Predictions Today Best Wins Odds 1X2 Fixed

.Soccer Predictions Tomorrow Best Wins Odds 1X2

Soccer Predictions Today Best Wins Odds 1X2 Fixed Soccer Predictions Today Best Wins Odds 1X2. Fixed Tips. Sure Profit. Secure Match. Best Tip 1×2. Sure Tip. Today Fixed Match Fixed

Best HT FT Predictions Sure Odds Bet Wins Matches

 

 

 

 

1/2 2/1 fixed matches free. fixed matches ht/ft. ht/ft fixed match. free tips 2/1. fixed matches 2/1. fixed match 100% sure. ht/ft fixed. sure tips 2/1 free. 1X2 betting tips. 2/1 1/2 tips free. fixed ht ft. Today fixed Matches. ht ft match. tip 2/1. free fixed bet. Best HT FT Predictions Sure Odds Bet Wins Matches. ht/ft soccer tips. free betting tips ht/ft. fixed match ht ft. tips 1/2 Fixed Matches. HT FT. 2-1. 1-2. Tips 1×2. Predictions. Free Soccer. Best HT FT Predictions Sure Odds Bet Wins Matches. Fixed Tips. Sure Profit. Secure Match. Best Tip 1×2. Sure Tip. Today Fixed Match. Vip Tips 1×2. Sure 100%. Real Matches. footbal predictions. today fixed match. correct scores sure 100% Over 85% WIN RATE! 100% Satisfaction Guarantee easy money. fixed match. fixed tips. gambling. paid matches. soccer matches. soccer tips. ht/ft prediction tips. fixed match tips. free fixed matches today. Sport Bet Sure Predictions. free fixed matches tips. tips 1×2 free 100. free soccer predictions ht/ft. ht/ft predictions for today. Best HT FT Predictions Sure Odds Bet Wins Matches. fixed match 1/2 free. ht/ft prediction sites. soccer prediction ht ft. If you arrived to our website searching for free fixed matches. fixed match tips free. free match tips. Best HT FT Predictions Sure Odds Bet Wins Matches. best fixed matches. pronostic ht ft. info tips. free manipulated matches. Bet Fixed Matches Tomorrow. Weekend Fixed Matches. 1/2 tips free. sure win bet predictions. free fixed. betting 1×2. htft. 1/2 or 2/1 free tips. Soccer Predictions. fixedmatches. betting tips ht/ft. ht/ft betting tips. best ht/ft predictions. fixed games for today. 100 sure soccer prediction sites. Analize. Best HT FT Predictions Sure Odds Bet Wins Matches. Best HT FT Predictions Sure Odds Bet Wins Matches fixed have monthy subscription. this matches is analyxed matches with all info for this match. this matches is sure over 95% and profit is guaranted. We have real fixed matches. Not for free. Best HT FT Predictions Sure Odds Bet Wins Matches As we also pay a lot money to get the matches. we can not give you any free fixed match. 1X2 daily tips best Odds Best football tips betting offers Betting tips bet tips football betting predictions football betting tips football prediction football predictions football predictor football tips free bets Free Betting Tips Free Daily Betting Tips free football picks Free Football Tips freepicks free picks Free soccer picks free soccer prediction free soccer tips Free Soccer Tips for today Free Tips Free Tips 1X2 no deposit free Best HT FT Predictions Sure Odds Bet Wins Matches bet Paid and Free Soccer Picks Picks prediction football soccer betting tips soccer picks soccer prediction soccer predictions soccer prediction sites soccer tips tips football weekend football tips.easy money. fixed match. fixed tips. gambling. paid matches. soccer matches. soccer tips. sports betting. sure win

Best HT FT Predictions Sure Odds Bet Wins Matches Best HT FT Predictions Sure Odds Bet Wins Matches. Gambling involves high psychological and financial risk. Best HT FT Predictions Sure Odds Bet Wins Matches cannot be held responsible for any loss or damage as consequence of decisions based on information. betting advices or links provided on this site. Best HT FT Predictions Sure Odds Bet Wins Matches. The visitor is warned to act exclusively at his own discretion and risk. Best HT FT Predictions Sure Odds Bet Wins Matches, soccer matches predictions, prediction football matches, prediction of football matches, predictions for today matches, predictions for soccer matches, today matches prediction, matches predictions, soccer matches for today, vip tips soccer, soccer vip tips, free vip soccer tips, vip betting tips, www.vip.hr, vip football tips, vip bet tips, vip tips.com
Best HT FT Predictions Sure Odds Bet Wins Matches

Day Correct Score Predictions Accurate Soccer Predictions Free Sure , sure bet prediction sure win soccer tips free predictions and possible sure wins                                      



This is our free prediction and sometimes we take even 1.50/3.00 odds as “small”. Our free tips are predictions from our community team. 05.10.2018

18.10.2018 

21:45 Sertanense – Benfica – 2 @ 1.08
FT: (? : ?)

If you want win for sure ,try our professional service !
Day Correct Score Predictions Accurate Soccer Predictions Free Sure , sure bet prediction sure win soccer tips free predictions and possible sure wins IF you are not interested in purchesing a package, good luck with these free daily tips !


31248584_10212242778843852_3337946680057135104_n.gif (400×100)                                      
jfvwck.jpg (270×70)

16.10.2018 

17:00 UAE – Venezuela – 1 @ 1.85
FT: (0 : 2) LOSE

13.10.2018 

16:00 Coventry – Wycombe – DNB1 @ 1.60
FT: (1 : 0) WIN

12.10.2018 

20:45 Greece – Hungary – NBTTS @ 1.60
FT: (1 : 0) WIN


11.10.2018 

21:45 Russia – Sweden – DNB1 @ 1.55
FT: (0:0) WIN


10.10.2018 

16:00 FC Zvezda Perm – Ulyanovsk – 1 @ 3.20
FT: (2 : 0) WIN


08.10.2018 

 21:00 Zaragoza – Osasuna – DNB1 @ 1.55
FT: (1 : 1) WIN


07.10.2018 

18:00 RB Leipzig – Nurnberg – Over 2.5 @ 1.60
FT: (6 : 0) WIN


06.10.2018 

16:00 Tottenham – Cardiff – AH1(-1, -1.5) @ 1.55
FT: (1 : 0) WIN

Fixed Match 100 Sure Bet Predictions Football 1X2

 

 

 

 

 

 

 

 

 

 

 

 

 

 

 

 

 

 

 

 

 

 

 

 

 

 

 

 

 

 

 

 

 

 

 

 

 

 

 

 

 

 

 

 

 

 

 

 

 

 

 

 

 

 

 

 

 

 

 

 

 

 

 

 

 

 

 

 

 

 

 

 

 

 

 

 

 

 

 

 

 

 

 

 

 

 

 

 

 

 

 

 

 

 

 

 

 

 

 

 

 

 

 

 

 

 

 

 

 

 

 

 

 

 

 

 

 

 

 

 

 

 

 

 

 

 

 

 

 

 

 

 

 

 

 

 

 

 

 

 

 

 

 

 

 

 

 

 

 

 

 

 

 

 

 

 

 

 

 

 

 

 

 

 

 

 

 

 

 

 

 

 

 

 

 

 

 

 

 

 

 

 

 

 

 

 

 

 

 

 

 

 

 

 

 

 

1/2 2/1 fixed matches free. fixed matches ht/ft. ht/ft fixed match. free tips 2/1. fixed matches 2/1. fixed match 100% sure. ht/ft fixed. sure tips 2/1 free. 1X2 betting tips. 2/1 1/2 tips free. fixed ht ft. Today fixed Matches. ht ft match. tip 2/1. free fixed bet. Fixed Match 100 Sure Bet Predictions Football 1X2. ht/ft soccer tips. free betting tips ht/ft. fixed match ht ft. tips 1/2 Fixed Matches. HT FT. 2-1. 1-2. Tips 1×2. Predictions. Free Soccer. Fixed Match 100 Sure Bet Predictions Football 1X2. Fixed Tips. Sure Profit. Secure Match. Best Tip 1×2. Sure Tip. Today Fixed Match. Vip Tips 1×2. Sure 100%. Real Matches. footbal predictions. today fixed match. correct scores sure 100% Over 85% WIN RATE! 100% Satisfaction Guarantee easy money. fixed match. fixed tips. gambling. paid matches. soccer matches. soccer tips. ht/ft prediction tips. fixed match tips. free fixed matches today. Sport Bet Sure Predictions. free fixed matches tips. tips 1×2 free 100. free soccer predictions ht/ft. ht/ft predictions for today. Fixed Match 100 Sure Bet Predictions Football 1X2. fixed match 1/2 free. ht/ft prediction sites. soccer prediction ht ft. If you arrived to our website searching for free fixed matches. fixed match tips free. free match tips. Fixed Match 100 Sure Bet Predictions Football 1X2. best fixed matches. pronostic ht ft. info tips. free manipulated matches. Bet Fixed Matches Tomorrow. Weekend Fixed Matches. 1/2 tips free. sure win bet predictions. free fixed. betting 1×2. htft. 1/2 or 2/1 free tips. Soccer Predictions. fixedmatches. betting tips ht/ft. ht/ft betting tips. best ht/ft predictions. fixed games for today. 100 sure soccer prediction sites. Analize. Fixed Match 100 Sure Bet Predictions Football 1X2. Fixed Match 100 Sure Bet Predictions Football 1X2 fixed have monthy subscription. this matches is analyxed matches with all info for this match. this matches is sure over 95% and profit is guaranted. We have real fixed matches. Not for free. Fixed Match 100 Sure Bet Predictions Football 1X2 As we also pay a lot money to get the matches. we can not give you any free fixed match. 1X2 daily tips best Odds Best football tips betting offers Betting tips bet tips football betting predictions football betting tips football prediction football predictions football predictor football tips free bets Free Betting Tips Free Daily Betting Tips free football picks Free Football Tips freepicks free picks Free soccer picks free soccer prediction free soccer tips Free Soccer Tips for today Free Tips Free Tips 1X2 no deposit free Fixed Match 100 Sure Bet Predictions Football 1X2 bet Paid and Free Soccer Picks Picks prediction football soccer betting tips soccer picks soccer prediction soccer predictions soccer prediction sites soccer tips tips football weekend football tips.easy money. fixed match. fixed tips. gambling. paid matches. soccer matches. soccer tips. sports betting. sure win

Fixed Match 100 Sure Bet Predictions Football 1X2 Fixed Match 100 Sure Bet Predictions Football 1X2. Gambling involves high psychological and financial risk. Fixed Match 100 Sure Bet Predictions Football 1X2 cannot be held responsible for any loss or damage as consequence of decisions based on information. betting advices or links provided on this site. Fixed Match 100 Sure Bet Predictions Football 1X2. The visitor is warned to act exclusively at his own discretion and risk. Fixed Match 100 Sure Bet Predictions Football 1X2, soccer matches predictions, prediction football matches, prediction of football matches, predictions for today matches, predictions for soccer matches, today matches prediction, matches predictions, soccer matches for today, vip tips soccer, soccer vip tips, free vip soccer tips, vip betting tips, www.vip.hr, vip football tips, vip bet tips, vip tips.com Fixed Match 100 Sure Bet Predictions Football 1X2

GEM-BET © 2018